Date String (YYYY-MM-DD hh:mm:ss) UTC,Instrument flags,Ambient pressure (hPa),Sample flow (lpm),Bypass flow (lpm),Sample temperature (°C),Ambient temperature (°C),ASC tube jacket temperature (°C),LED temperature (°C),Box temperature (°C),Sample RH (%),Span deviation,Mass concentration (μg/m³),Mass concentration (μg/m³),Mass concentration (μg/m³)
DateTimeUTC,F1_M11,P_M11,Q1_M11,Q2_M11,T1_M11,T2_M11,T3_M11,T4_M11,T5_M11,U1_M11,ZSPAN_M11,X0_M11,X2_M11,X1_M11
2021-11-22 07:00:00,,0832.0,5.00,0.00,25.3,24.4,00.0,34.3,27.0,09.1,0000.0,0011.43,0003.96,0003.34
2021-11-22 07:01:00,,0832.1,5.00,0.00,25.3,24.4,00.0,34.3,27.0,09.4,0000.0,0011.44,0003.97,0003.34
2021-11-22 07:02:00,,0832.0,5.01,0.00,25.2,24.3,00.0,34.3,27.0,09.5,0000.0,0011.03,0003.97,0003.34
2021-11-22 07:03:00,,0832.0,4.99,0.00,25.2,24.4,00.0,34.3,27.0,09.2,0000.0,0011.18,0003.98,0003.34
2021-11-22 07:04:00,,0832.1,5.01,0.00,25.2,24.3,00.0,34.3,27.0,09.4,0000.0,0010.72,0003.97,0003.34
2021-11-22 07:05:00,,0832.1,5.00,0.00,25.2,24.3,00.0,34.3,27.0,09.4,0000.0,0010.27,0003.99,0003.35
2021-11-22 07:06:00,,0832.1,4.99,0.00,25.2,24.3,00.0,34.3,27.0,09.0,0000.0,0009.44,0003.99,0003.34
2021-11-22 07:07:00,,0832.1,5.00,0.00,25.2,24.3,00.0,34.3,27.0,09.3,0000.0,0008.47,0003.92,0003.34
2021-11-22 07:08:00,,0832.0,5.01,0.00,25.2,24.3,00.0,34.2,27.0,09.4,0000.0,0008.33,0003.97,0003.38
2021-11-22 07:09:00,,0832.1,5.00,0.00,25.2,24.3,00.0,34.2,27.0,09.4,0000.0,0008.92,0004.03,0003.42
2021-11-22 07:10:00,,0832.1,5.00,0.00,25.2,24.3,00.0,34.2,27.0,09.0,0000.0,0009.49,0004.04,0003.43
2021-11-22 07:11:00,,0832.1,4.99,0.00,25.2,24.3,00.0,34.2,27.0,09.3,0000.0,0009.36,0004.07,0003.44
2021-11-22 07:12:00,,0832.0,5.01,0.00,25.2,24.3,00.0,34.2,27.0,09.1,0000.0,0009.36,0004.07,0003.44
2021-11-22 07:13:00,,0832.0,4.99,0.00,25.2,24.3,00.0,34.2,27.0,09.0,0000.0,0009.69,0004.07,0003.42
2021-11-22 07:14:00,,0832.1,5.00,0.00,25.2,24.3,00.0,34.2,27.0,08.9,0000.0,0009.26,0004.07,0003.39
2021-11-22 07:15:00,,0832.1,5.01,0.00,25.2,24.3,00.0,34.2,27.0,08.9,0000.0,0009.31,0004.08,0003.38
2021-11-22 07:16:00,,0832.1,5.00,0.00,25.2,24.3,00.0,34.2,27.0,08.9,0000.0,0008.89,0004.02,0003.35
2021-11-22 07:17:00,,0832.1,4.99,0.00,25.2,24.3,00.0,34.2,27.0,09.0,0000.0,0008.78,0003.99,0003.35
2021-11-22 07:18:00,,0832.1,5.01,0.00,25.2,24.3,00.0,34.2,27.0,09.0,0000.0,0008.92,0004.02,0003.36
2021-11-22 07:19:00,,0832.1,4.99,0.00,25.2,24.3,00.0,34.2,27.0,09.0,0000.0,0008.89,0003.99,0003.34
2021-11-22 07:20:00,,0832.1,5.01,0.00,25.2,24.3,00.0,34.2,27.0,09.0,0000.0,0008.36,0003.90,0003.30
2021-11-22 07:21:00,,0832.1,4.99,0.00,25.2,24.3,00.0,34.2,26.9,09.0,0000.0,0008.38,0003.84,0003.29
2021-11-22 07:22:00,,0832.1,5.01,0.00,25.2,24.3,00.0,34.2,26.9,09.0,0000.0,0008.87,0003.84,0003.29
2021-11-22 07:23:00,,0832.1,5.01,0.00,25.2,24.3,00.0,34.2,26.9,09.0,0000.0,0008.81,0003.81,0003.29
2021-11-22 07:24:00,,0832.2,4.98,0.00,25.2,24.3,00.0,34.2,26.9,09.0,0000.0,0008.65,0003.79,0003.29
2021-11-22 07:25:00,,0832.1,5.00,0.00,25.2,24.3,00.0,34.2,26.9,09.0,0000.0,0009.06,0003.75,0003.29
2021-11-22 07:26:00,,0832.1,5.01,0.00,25.1,24.2,00.0,34.2,26.8,09.2,0000.0,0008.94,0003.74,0003.31
2021-11-22 07:27:00,,0832.1,4.99,0.00,25.1,24.2,00.0,34.2,26.9,09.4,0000.0,0009.60,0003.79,0003.35
2021-11-22 07:28:00,,0832.1,4.99,0.00,25.1,24.2,00.0,34.2,26.9,09.4,0000.0,0009.98,0003.88,0003.41
2021-11-22 07:29:00,,0832.0,5.00,0.00,25.1,24.2,00.0,34.1,26.8,09.3,0000.0,0010.83,0003.94,0003.44
2021-11-22 07:30:00,,0832.1,5.00,0.00,25.1,24.2,00.0,34.1,26.9,09.3,0000.0,0011.43,0004.00,0003.48
2021-11-22 07:31:00,,0832.1,4.99,0.00,25.1,24.2,00.0,34.1,26.9,09.5,0000.0,0011.62,0004.08,0003.51
2021-11-22 07:32:00,,0832.1,5.00,0.00,25.1,24.2,00.0,34.1,26.8,09.4,0000.0,0011.46,0004.15,0003.56
2021-11-22 07:33:00,,0832.1,5.01,0.00,25.1,24.2,00.0,34.1,26.8,09.6,0000.0,0011.06,0004.20,0003.60
2021-11-22 07:34:00,,0832.1,4.99,0.00,25.1,24.2,00.0,34.1,26.8,09.6,0000.0,0011.16,0004.26,0003.64
2021-11-22 07:35:00,,0832.1,5.01,0.00,25.1,24.2,00.0,34.1,26.8,09.9,0000.0,0011.13,0004.31,0003.68
2021-11-22 07:36:00,,0832.1,4.99,0.00,25.1,24.2,00.0,34.1,26.8,10.4,0000.0,0011.35,0004.42,0003.77
2021-11-22 07:37:00,,0832.1,5.00,0.00,25.1,24.2,00.0,34.1,26.8,10.1,0000.0,0011.77,0004.50,0003.83
2021-11-22 07:38:00,,0832.1,5.00,0.00,25.0,24.1,00.0,34.1,26.8,10.1,0000.0,0011.57,0004.54,0003.86
2021-11-22 07:39:00,,0832.1,5.00,0.00,25.0,24.1,00.0,34.1,26.7,10.5,0000.0,0011.57,0004.58,0003.89
2021-11-22 07:40:00,,0832.1,5.00,0.00,25.0,24.1,00.0,34.1,26.8,10.8,0000.0,0011.42,0004.64,0003.97
2021-11-22 07:41:00,,0832.1,4.99,0.00,25.0,24.1,00.0,34.1,26.8,11.0,0000.0,0011.09,0004.67,0004.05
2021-11-22 07:42:00,,0832.1,5.01,0.00,25.0,24.1,00.0,34.1,26.8,11.0,0000.0,0011.05,0004.72,0004.12
2021-11-22 07:43:00,,0832.1,4.99,0.00,25.0,24.1,00.0,34.1,26.8,10.9,0000.0,0010.79,0004.77,0004.19
2021-11-22 07:44:00,,0832.1,5.02,0.00,25.0,24.1,00.0,34.1,26.8,10.9,0000.0,0010.60,0004.80,0004.25
2021-11-22 07:45:00,,0832.1,4.98,0.00,25.0,24.1,00.0,34.1,26.8,10.6,0000.0,0010.53,0004.86,0004.29
2021-11-22 07:46:00,,0832.1,5.01,0.00,25.0,24.1,00.0,34.0,26.8,10.8,0000.0,0010.64,0004.92,0004.33
2021-11-22 07:47:00,,0832.1,5.00,0.00,25.0,24.1,00.0,34.0,26.8,10.9,0000.0,0010.26,0004.93,0004.35
2021-11-22 07:48:00,,0832.1,5.01,0.00,25.0,24.1,00.0,34.0,26.8,10.6,0000.0,0009.82,0004.93,0004.37
2021-11-22 07:49:00,,0832.0,4.99,0.00,25.0,24.1,00.0,34.0,26.8,10.8,0000.0,0009.61,0004.92,0004.40
2021-11-22 07:50:00,,0831.9,5.01,0.00,25.0,24.1,00.0,34.0,26.8,10.9,0000.0,0009.79,0004.92,0004.42
2021-11-22 07:51:00,,0832.0,5.01,0.00,25.0,24.1,00.0,34.0,26.8,11.0,0000.0,0009.14,0004.91,0004.41
2021-11-22 07:52:00,,0832.0,4.99,0.00,25.0,24.1,00.0,34.0,26.8,11.0,0000.0,0009.09,0004.91,0004.39
2021-11-22 07:53:00,,0832.1,4.99,0.00,25.0,24.1,00.0,34.0,26.8,11.0,0000.0,0009.16,0004.90,0004.38
2021-11-22 07:54:00,,0832.1,5.01,0.00,25.0,24.1,00.0,34.0,26.7,10.7,0000.0,0009.21,0004.92,0004.36
2021-11-22 07:55:00,,0832.1,5.00,0.00,25.0,24.1,00.0,34.0,26.7,10.8,0000.0,0009.35,0004.94,0004.36
2021-11-22 07:56:00,,0832.1,4.99,0.00,25.0,24.1,00.0,34.0,26.8,10.8,0000.0,0009.43,0004.98,0004.37
2021-11-22 07:57:00,,0832.1,5.01,0.00,25.0,24.1,00.0,34.0,26.7,10.8,0000.0,0009.39,0004.98,0004.37
2021-11-22 07:58:00,,0832.1,4.99,0.00,25.0,24.1,00.0,34.0,26.7,10.9,0000.0,0010.09,0004.98,0004.36
2021-11-22 07:59:00,,0832.0,5.01,0.00,25.0,24.1,00.0,34.0,26.7,10.9,0000.0,0011.53,0004.96,0004.34
